Weather History for Tehachapi, CA

Change the Weather History Date:

Saturday, February 11, 2012

  Actual Average Record
Temperature  
Mean Temperature 42 °F -  
Max Temperature 44 °F 54 °F 55 °F (2014)
Min Temperature 39 °F 31 °F 23 °F (2013)
Degree Days  
Heating Degree Days 24    
Moisture  
Dew Point 39 °F    
Average Humidity 92    
Maximum Humidity 100    
Minimum Humidity 81    
Precipitation  
Precipitation 0.02 in - - ()
Sea Level Pressure  
Sea Level Pressure 30.00 in    
Wind  
Wind Speed 13 mph (WNW)    
Max Wind Speed 23 mph    
Max Gust Speed 30 mph    
Visibility 6 miles    
Events Rain    
Averages and records for this station are not official NWS values.
T = Trace of Precipitation, MM = Missing Value Source: NWS Daily Summary

Daily Weather History Graph

Daily Weather History Graph

Search for Another Location

Airport:

Trip Planner

Search our weather history database for the weather conditions in past years. The results will help you decide how hot, cold, wet, or windy it might be!

Date:

Astronomy

Feb. 11, 2012 Rise Set
Actual Time 6:44 AM PST 5:32 PM PST
Civil Twilight 6:18 AM PST 5:58 PM PST
Nautical Twilight 5:48 AM PST 6:28 PM PST
Astronomical Twilight 5:18 AM PST 6:57 PM PST
Moon 10:11 PM PST (2/11) 8:42 AM PST (2/11)
Length of Visible Light 11h 39m
Length of Day
10h 47m
Waning Gibbous, 81% of the Moon is Illuminated
Feb 11
Waning Gibbous
Feb 14
Last Quarter
Feb 21
New
Feb 29
First Quarter
Mar 8
Full

Hourly Weather History & Observations

Time (PST) Temp. Windchill Dew Point Humidity Pressure Visibility Wind Dir Wind Speed Gust Speed Precip Events Conditions
12:15 AM 41.0 °F - 37.4 °F 87% 30.07 in 10.0 mi Calm Calm - N/A   Clear
12:35 AM 41.0 °F - 37.4 °F 87% 30.06 in 10.0 mi Calm Calm - N/A   Clear
12:55 AM 41.0 °F 34.7 °F 37.4 °F 87% 30.06 in 10.0 mi West 10.4 mph - N/A   Clear
1:15 AM 44.6 °F 37.8 °F 39.2 °F 81% 30.06 in 10.0 mi NW 15.0 mph - N/A   Clear
1:35 AM 44.6 °F 38.8 °F 41.0 °F 87% 30.05 in 8.0 mi WNW 11.5 mph - N/A   Partly Cloudy
1:55 AM 44.6 °F 39.7 °F 41.0 °F 87% 30.04 in 8.0 mi NW 9.2 mph - N/A   Scattered Clouds
2:15 AM 44.6 °F 39.2 °F 41.0 °F 87% 30.04 in 7.0 mi WNW 10.4 mph - N/A   Scattered Clouds
2:35 AM 44.6 °F 37.8 °F 41.0 °F 87% 30.04 in 8.0 mi WNW 15.0 mph 18.4 mph N/A   Partly Cloudy
2:55 AM 44.6 °F 39.2 °F 41.0 °F 87% 30.03 in 7.0 mi WNW 10.4 mph - N/A   Partly Cloudy
3:15 AM 44.6 °F 38.1 °F 41.0 °F 87% 30.03 in 5.0 mi West 13.8 mph 17.3 mph N/A   Partly Cloudy
3:35 AM 42.8 °F 36.2 °F 42.8 °F 100% 30.02 in 1.5 mi West 12.7 mph - N/A   Scattered Clouds
3:55 AM 42.8 °F 35.8 °F 42.8 °F 100% 30.02 in 4.0 mi West 13.8 mph 20.7 mph N/A   Partly Cloudy
4:15 AM 44.6 °F 37.4 °F 42.8 °F 93% 30.02 in 5.0 mi West 16.1 mph - N/A   Clear
4:35 AM 44.6 °F 37.4 °F 41.0 °F 87% 30.01 in 5.0 mi West 16.1 mph - N/A   Clear
4:55 AM 44.6 °F 37.2 °F 41.0 °F 87% 30.01 in 5.0 mi West 17.3 mph - N/A   Clear
5:15 AM 44.6 °F 38.4 °F 41.0 °F 87% 30.01 in 5.0 mi West 12.7 mph - N/A   Clear
5:35 AM 42.8 °F 36.6 °F 41.0 °F 93% 30.01 in 3.0 mi WNW 11.5 mph - N/A   Mist
5:55 AM 42.8 °F 36.2 °F 42.8 °F 100% 30.00 in 0.5 mi WNW 12.7 mph - N/A Rain Light Rain
6:35 AM 42.8 °F 35.8 °F 42.8 °F 100% 30.01 in 3.0 mi West 13.8 mph - N/A Rain Light Rain
6:55 AM 42.8 °F 35.8 °F 42.8 °F 100% 30.00 in 1.8 mi West 13.8 mph - N/A   Scattered Clouds
7:15 AM 42.8 °F 35.8 °F 42.8 °F 100% 30.01 in 1.0 mi West 13.8 mph 18.4 mph N/A   Mostly Cloudy
7:35 AM 42.8 °F 35.4 °F 42.8 °F 100% 30.00 in 2.0 mi West 15.0 mph - N/A Rain Light Rain
7:55 AM 41.0 °F 33.1 °F 41.0 °F 100% 30.01 in 0.2 mi NW 15.0 mph - N/A Rain Light Rain
8:15 AM 41.0 °F 33.5 °F 41.0 °F 100% 30.01 in 0.2 mi NW 13.8 mph 19.6 mph N/A Rain Light Rain
8:35 AM 41.0 °F 32.2 °F 41.0 °F 100% 30.01 in 3.0 mi NW 18.4 mph 23.0 mph N/A Rain Light Rain
8:55 AM 41.0 °F 31.4 °F 41.0 °F 100% 30.01 in 2.0 mi NW 21.9 mph 29.9 mph N/A Rain Light Rain
9:15 AM 41.0 °F 31.9 °F 41.0 °F 100% 30.01 in 0.2 mi NW 19.6 mph 25.3 mph N/A Rain Light Rain
9:35 AM 42.8 °F 33.5 °F 42.8 °F 100% 30.01 in 2.0 mi NW 23.0 mph 27.6 mph N/A   Mostly Cloudy
9:55 AM 41.0 °F 32.2 °F 41.0 °F 100% 30.01 in 1.0 mi NW 18.4 mph 26.5 mph N/A Rain Light Rain
10:15 AM 41.0 °F 32.2 °F 41.0 °F 100% 30.01 in 1.0 mi WNW 18.4 mph 29.9 mph N/A Rain Light Rain
10:35 AM 42.8 °F 34.0 °F 42.8 °F 100% 30.01 in 1.0 mi NW 20.7 mph 29.9 mph N/A Rain Light Rain
10:55 AM 42.8 °F 34.0 °F 42.8 °F 100% 30.00 in 2.0 mi NW 20.7 mph 27.6 mph N/A Rain Light Rain
11:15 AM 42.8 °F 34.3 °F 42.8 °F 100% 30.00 in 5.0 mi NW 19.6 mph 26.5 mph N/A   Partly Cloudy
11:35 AM 44.6 °F 36.6 °F 44.6 °F 100% 30.00 in 5.0 mi NW 19.6 mph - N/A Rain Light Rain
11:55 AM 44.6 °F 36.4 °F 41.0 °F 87% 29.99 in 7.0 mi NW 20.7 mph 25.3 mph N/A Rain Light Rain
12:15 PM 41.0 °F 31.6 °F 41.0 °F 100% 29.99 in 3.0 mi NW 20.7 mph 25.3 mph N/A Rain Light Rain
12:35 PM 41.0 °F 32.2 °F 41.0 °F 100% 29.98 in 6.0 mi NW 18.4 mph 26.5 mph 0.01 in   Clear
12:55 PM 42.8 °F 34.3 °F 39.2 °F 87% 29.98 in 8.0 mi NW 19.6 mph 28.8 mph 0.01 in   Clear
1:15 PM 42.8 °F 34.0 °F 39.2 °F 87% 29.97 in 9.0 mi NW 20.7 mph 24.2 mph N/A   Clear
1:55 PM 41.0 °F 31.6 °F 39.2 °F 93% 29.96 in 5.0 mi NW 20.7 mph - N/A Rain Light Rain
2:15 PM 41.0 °F 32.2 °F 39.2 °F 93% 29.97 in 5.0 mi NW 18.4 mph 27.6 mph N/A Rain Light Rain
2:35 PM 41.0 °F 31.9 °F 39.2 °F 93% 29.96 in 8.0 mi NW 19.6 mph 25.3 mph N/A   Clear
2:55 PM 41.0 °F 32.5 °F 37.4 °F 87% 29.96 in 9.0 mi NW 17.3 mph 26.5 mph N/A   Clear
3:15 PM 39.2 °F 29.8 °F 37.4 °F 93% 29.96 in 3.0 mi NW 18.4 mph 28.8 mph 0.01 in Rain Light Rain
3:35 PM 39.2 °F 30.5 °F 39.2 °F 100% 29.96 in 8.0 mi WNW 16.1 mph 26.5 mph 0.01 in   Clear
3:55 PM 39.2 °F 29.6 °F 37.4 °F 93% 29.96 in 8.0 mi NW 19.6 mph 25.3 mph 0.01 in   Clear
4:15 PM 39.2 °F 30.5 °F 37.4 °F 93% 29.96 in 9.0 mi NW 16.1 mph 23.0 mph N/A   Clear
4:35 PM 41.0 °F 32.2 °F 35.6 °F 81% 29.96 in 9.0 mi NW 18.4 mph 23.0 mph N/A   Clear
4:55 PM 39.2 °F 30.2 °F 35.6 °F 87% 29.96 in 10.0 mi WNW 17.3 mph 24.2 mph N/A   Clear
5:35 PM 39.2 °F 31.6 °F 35.6 °F 87% 29.97 in 9.0 mi WNW 12.7 mph - N/A   Partly Cloudy
5:55 PM 39.2 °F 31.2 °F 35.6 °F 87% 29.97 in 10.0 mi WNW 13.8 mph - N/A   Scattered Clouds
6:15 PM 39.2 °F 31.6 °F 35.6 °F 87% 29.97 in 10.0 mi WNW 12.7 mph - N/A   Scattered Clouds
6:35 PM 39.2 °F 32.0 °F 35.6 °F 87% 29.96 in 10.0 mi WNW 11.5 mph - N/A   Mostly Cloudy
6:55 PM 39.2 °F 32.5 °F 35.6 °F 87% 29.96 in 10.0 mi WNW 10.4 mph - N/A   Mostly Cloudy
7:35 PM 39.2 °F 31.2 °F 35.6 °F 87% 29.97 in 10.0 mi WNW 13.8 mph - N/A   Clear
7:55 PM 39.2 °F 31.6 °F 35.6 °F 87% 29.97 in 10.0 mi NW 12.7 mph 18.4 mph N/A   Partly Cloudy
8:15 PM 39.2 °F 30.8 °F 35.6 °F 87% 29.98 in 10.0 mi NW 15.0 mph - N/A   Partly Cloudy
8:35 PM 39.2 °F 30.8 °F 35.6 °F 87% 29.98 in 10.0 mi WNW 15.0 mph - N/A   Partly Cloudy
8:55 PM 39.2 °F 30.8 °F 35.6 °F 87% 29.98 in 10.0 mi WNW 15.0 mph - N/A   Partly Cloudy
9:15 PM 39.2 °F 30.5 °F 35.6 °F 87% 29.99 in 10.0 mi WNW 16.1 mph 21.9 mph N/A   Scattered Clouds
9:35 PM 39.2 °F 30.5 °F 35.6 °F 87% 29.99 in 10.0 mi WNW 16.1 mph 20.7 mph N/A   Partly Cloudy
9:55 PM 39.2 °F 30.2 °F 35.6 °F 87% 30.00 in 10.0 mi WNW 17.3 mph 20.7 mph N/A   Partly Cloudy
10:15 PM 39.2 °F 29.8 °F 35.6 °F 87% 30.00 in 10.0 mi WNW 18.4 mph 23.0 mph N/A   Clear
10:35 PM 41.0 °F 32.5 °F 35.6 °F 81% 30.00 in 10.0 mi WNW 17.3 mph - N/A   Partly Cloudy
10:55 PM 39.2 °F 30.5 °F 35.6 °F 87% 29.99 in 9.0 mi NW 16.1 mph 19.6 mph N/A   Partly Cloudy
11:15 PM 39.2 °F 30.8 °F 37.4 °F 93% 30.00 in 4.0 mi WNW 15.0 mph - N/A Rain Light Rain
11:55 PM 39.2 °F 29.8 °F 37.4 °F 93% 30.00 in 2.5 mi WNW 18.4 mph 24.2 mph 0.06 in Rain Light Rain